This is the latest recevied weather packets stored in our database for station/object KN6ETB-1. If no packets are shown the sender has not sent any weather packets the latest 10 day(s).
| Time | Temp. | Humidity | Pressure | Rain* | Wind** | Luminosity | Snow |
|---|---|---|---|---|---|---|---|
| 1777850412 | 20° C | 55% | 1009.1 hPa | 0 mm | - | 328 W/m² | - |
| 1777850110 | 20° C | 56% | 1009 hPa | 0 mm | - | 347 W/m² | - |
| 1777849806 | 20° C | 56% | 1008.8 hPa | 0 mm | - | 370 W/m² | - |
| 1777849503 | 20° C | 54% | 1008.8 hPa | 0 mm | - | 340 W/m² | - |
| 1777849200 | 20° C | 55% | 1008.7 hPa | 0 mm | - | 347 W/m² | - |
| 1777848897 | 20° C | 53% | 1008.8 hPa | 0 mm | - | 407 W/m² | - |
| 1777848592 | 20° C | 54% | 1009.1 hPa | 0 mm | - | 459 W/m² | - |
| 1777848290 | 19.44° C | 55% | 1008.8 hPa | 0 mm | - | 359 W/m² | - |
| 1777847987 | 20° C | 55% | 1009 hPa | 0 mm | - | 422 W/m² | - |
| 1777847685 | 20.56° C | 55% | 1008.8 hPa | 0 mm | - | 486 W/m² | - |
| 1777847381 | 20.56° C | 55% | 1008.8 hPa | 0 mm | - | 340 W/m² | - |
| 1777847079 | 20.56° C | 54% | 1008.8 hPa | 0 mm | - | 576 W/m² | - |
| 1777846777 | 20.56° C | 55% | 1008.9 hPa | 0 mm | - | 611 W/m² | - |
| 1777846475 | 20° C | 55% | 1008.8 hPa | 0 mm | - | 563 W/m² | - |
| 1777846172 | 20.56° C | 55% | 1009.1 hPa | 0 mm | - | 610 W/m² | - |
| 1777845868 | 20° C | 56% | 1009.1 hPa | 0 mm | - | 631 W/m² | - |
| 1777845565 | 20° C | 57% | 1009.1 hPa | 0 mm | - | 649 W/m² | - |
| 1777845262 | 20° C | 56% | 1009.3 hPa | 0 mm | - | 633 W/m² | - |
| 1777844960 | 20° C | 56% | 1009.3 hPa | 0 mm | - | 640 W/m² | - |
| 1777844657 | 20° C | 58% | 1009.5 hPa | 0 mm | - | 636 W/m² | - |
| 1777844354 | 20° C | 56% | 1009.4 hPa | 0 mm | - | 581 W/m² | - |
| 1777844052 | 20° C | 57% | 1009.4 hPa | 0 mm | - | 620 W/m² | - |
| 1777843748 | 20° C | 56% | 1009.3 hPa | 0 mm | - | 351 W/m² | - |
| 1777843446 | 20° C | 57% | 1009.3 hPa | 0 mm | - | 646 W/m² | - |
| 1777843143 | 19.44° C | 59% | 1009.8 hPa | 0 mm | - | 256 W/m² | - |
* Rain latest hour (hover to see other rain measurements)
** Current wind speed in m/s (hover to see current wind gust speed)